Regional Weather Roundup
Issued by NWS

Home | Current Version | Previous Version | Text Only | Print | Product List | Glossary Off
Versions: 1 2 3 4 5 6 7 8 9 10 11 12 13 14 15 16 17 18 19 20 21 22 23 24 25 26 27 28 29 30 31 32 33 34 35 36 37 38 39 40 41 42 43 44 45 46 47 48 49 50

000
ASUS43 KFSD 271910
RWRSD

WEATHER ROUNDUP FOR SOUTH DAKOTA
NATIONAL WEATHER SERVICE SIOUX FALLS SD
200 PM CDT WED JUL 27 2016

NOTE: "FAIR" INDICATES FEW OR NO CLOUDS BELOW 12,000 FEET WITH NO
SIGNIFICANT WEATHER AND/OR OBSTRUCTIONS TO VISIBILITY.


SDZ001>005-009-010-012>017-272000-
NORTHWEST AND NORTH CENTRAL SOUTH DAKOTA

CITY           SKY/WX    TMP DP  RH WIND       PRES   REMARKS
BUFFALO          N/A     62  58  86 N5        30.10F
FAITH            N/A     76  59  55 NE12      30.12R
MOBRIDGE       MOSUNNY   83  61  47 VRB6G17   30.06F
$$

SDZ012>016-024>037-041>051-057-063-072>074-272000-
SOUTHWEST AND SOUTH CENTRAL SOUTH DAKOTA

CITY           SKY/WX    TMP DP  RH WIND       PRES   REMARKS
RAPID CTY ARPT PTSUNNY   80  62  54 NE16      30.14R
PIERRE         MOSUNNY   86  61  42 NE13      30.03S
CUSTER         SUNNY     77  50  38 S5        30.24S
ELLSWORTH AFB  CLOUDY    79  62  57 N9        30.14R
PHILIP         CLOUDY    82  61  48 E16       30.06R
PINE RIDGE     SUNNY     80  63  55 N6        30.12F
WINNER         FAIR      85  66  53 NE12G23   30.04S
$$

SDZ004>011-016>023-039-040-272000-
NORTHEAST SOUTH DAKOTA

CITY           SKY/WX    TMP DP  RH WIND       PRES   REMARKS
ABERDEEN       SUNNY     78  63  59 NE10      30.05F
WATERTOWN      MOSUNNY   80  63  55 N12       30.03F
BROOKINGS      PTSUNNY   77  64  64 N13       30.02F
SISSETON         N/A     79  64  60 N16G22    30.03S
$$

SDZ017-020-022-023-036>040-048>070-272000-
SOUTHEAST SOUTH DAKOTA

CITY           SKY/WX    TMP DP  RH WIND       PRES   REMARKS
SIOUX FALLS    PTSUNNY   82  68  62 N10       30.00S
HURON          SUNNY     81  65  58 NE15      30.01F
CHAMBERLAIN    MOSUNNY   85  66  53 E10G16    30.03S
MITCHELL       PTSUNNY   82  66  58 N12G20    30.02S
YANKTON        SUNNY     84  61  45 NW7       29.99S
$$

ABBREVIATIONS USED IN REMARKS
   TC - TEMPERATURE IN CELSIUS
  WCI - WIND CHILL INDEX
   HX - HEAT INDEX
  VSB - VISIBILITY





USA.gov is the U.S. government's official web portal to all federal, state and local government web resources and services.